Time,TemperatureF,DewpointF,PressureIn,WindDirection,WindDirectionDegrees,WindSpeedMPH,WindSpeedGustMPH,Humidity,HourlyPrecipIn,Conditions,Clouds,dailyrainin,SolarRadiationWatts/m^2,SoftwareType,DateUTC
2013-05-08 00:07:00,54.5,49.1,29.95,SSE,155,1.0,1.0,82,0.00,,,0.00,0,Wunderground v.1.15,2013-05-08 07:07:00,
2013-05-08 00:22:00,54.2,48.8,29.96,South,169,2.0,5.0,82,0.00,,,0.00,0,Wunderground v.1.15,2013-05-08 07:22:00,
2013-05-08 00:32:00,53.9,48.9,29.96,South,174,2.0,2.0,83,0.00,,,0.00,0,Wunderground v.1.15,2013-05-08 07:32:00,
2013-05-08 00:37:00,53.9,48.9,29.96,South,172,1.0,2.0,83,0.00,,,0.00,0,Wunderground v.1.15,2013-05-08 07:37:00,
2013-05-08 00:52:00,53.8,49.1,29.96,SSE,168,2.0,2.0,84,0.00,,,0.00,0,Wunderground v.1.15,2013-05-08 07:52:00,
2013-05-08 00:57:00,53.6,48.9,29.96,South,169,1.0,3.0,84,0.00,,,0.00,0,Wunderground v.1.15,2013-05-08 07:57:00,
2013-05-08 01:08:00,53.5,48.8,29.97,SSE,164,2.0,2.0,84,0.00,,,0.00,0,Wunderground v.1.15,2013-05-08 08:08:00,
2013-05-08 01:18:00,53.2,48.8,29.97,South,178,2.0,5.0,85,0.00,,,0.00,0,Wunderground v.1.15,2013-05-08 08:18:00,
2013-05-08 01:28:00,53.1,48.7,29.97,SSE,162,1.0,1.0,85,0.00,,,0.00,0,Wunderground v.1.15,2013-05-08 08:28:00,
2013-05-08 01:42:00,52.9,48.5,29.98,South,184,2.0,2.0,85,0.00,,,0.00,0,Wunderground v.1.15,2013-05-08 08:42:00,
2013-05-08 01:48:00,52.8,48.7,29.98,South,185,1.0,2.0,86,0.00,,,0.00,0,Wunderground v.1.15,2013-05-08 08:48:00,
2013-05-08 01:58:00,52.6,48.5,29.98,South,185,1.0,2.0,86,0.00,,,0.00,0,Wunderground v.1.15,2013-05-08 08:58:00,
2013-05-08 02:07:00,52.5,48.4,29.99,South,186,1.0,1.0,86,0.00,,,0.00,0,Wunderground v.1.15,2013-05-08 09:07:00,
2013-05-08 02:17:00,52.5,48.4,29.99,ESE,109,2.0,3.0,86,0.00,,,0.00,0,Wunderground v.1.15,2013-05-08 09:17:00,
2013-05-08 02:27:00,52.5,48.4,29.99,SE,127,2.0,5.0,86,0.00,,,0.00,0,Wunderground v.1.15,2013-05-08 09:27:00,
2013-05-08 02:37:00,52.3,48.2,29.99,SE,141,2.0,2.0,86,0.00,,,0.00,0,Wunderground v.1.15,2013-05-08 09:37:00,
2013-05-08 02:47:00,52.0,47.9,30.00,SE,127,2.0,2.0,86,0.00,,,0.00,0,Wunderground v.1.15,2013-05-08 09:47:00,
2013-05-08 02:57:00,51.9,48.2,30.00,SE,136,2.0,5.0,87,0.00,,,0.00,0,Wunderground v.1.15,2013-05-08 09:57:00,
2013-05-08 03:07:00,51.7,48.0,30.00,SSW,202,3.0,5.0,87,0.00,,,0.00,0,Wunderground v.1.15,2013-05-08 10:07:00,
2013-05-08 03:17:00,51.6,47.9,30.01,SSW,195,2.0,2.0,87,0.00,,,0.00,0,Wunderground v.1.15,2013-05-08 10:17:00,
2013-05-08 03:27:00,51.6,47.9,30.01,SSE,155,2.0,2.0,87,0.00,,,0.00,0,Wunderground v.1.15,2013-05-08 10:27:00,
2013-05-08 03:37:00,51.4,47.7,30.01,South,191,3.0,3.0,87,0.00,,,0.00,0,Wunderground v.1.15,2013-05-08 10:37:00,
2013-05-08 03:47:00,51.3,47.6,30.02,ESE,120,3.0,3.0,87,0.00,,,0.00,0,Wunderground v.1.15,2013-05-08 10:47:00,
2013-05-08 04:02:00,51.4,47.7,30.02,SSE,158,3.0,3.0,87,0.00,,,0.00,0,Wunderground v.1.15,2013-05-08 11:02:00,
2013-05-08 04:08:00,51.4,47.7,30.02,SSW,196,3.0,5.0,87,0.00,,,0.00,0,Wunderground v.1.15,2013-05-08 11:08:00,
2013-05-08 04:18:00,51.3,47.6,30.02,South,186,6.0,6.0,87,0.00,,,0.00,0,Wunderground v.1.15,2013-05-08 11:18:00,
2013-05-08 04:28:00,51.4,47.7,30.02,South,184,5.0,5.0,87,0.00,,,0.00,0,Wunderground v.1.15,2013-05-08 11:28:00,
2013-05-08 04:38:00,51.6,47.9,30.02,South,181,3.0,5.0,87,0.00,,,0.00,0,Wunderground v.1.15,2013-05-08 11:38:00,
2013-05-08 04:48:00,51.7,47.6,30.02,SSW,198,2.0,2.0,86,0.00,,,0.00,0,Wunderground v.1.15,2013-05-08 11:48:00,
2013-05-08 04:58:00,51.9,47.8,30.02,SSE,158,2.0,2.0,86,0.00,,,0.00,0,Wunderground v.1.15,2013-05-08 11:58:00,
2013-05-08 05:07:00,51.9,47.8,30.02,South,176,2.0,2.0,86,0.00,,,0.00,0,Wunderground v.1.15,2013-05-08 12:07:00,
2013-05-08 05:17:00,51.9,47.8,30.03,SSW,198,2.0,4.0,86,0.00,,,0.00,0,Wunderground v.1.15,2013-05-08 12:17:00,
2013-05-08 05:27:00,51.9,47.8,30.03,SSW,206,3.0,6.0,86,0.00,,,0.00,0,Wunderground v.1.15,2013-05-08 12:27:00,
2013-05-08 05:37:00,51.9,47.5,30.03,ESE,103,3.0,6.0,85,0.00,,,0.00,0,Wunderground v.1.15,2013-05-08 12:37:00,
2013-05-08 05:47:00,52.0,47.6,30.03,SSW,200,2.0,3.0,85,0.00,,,0.00,5,Wunderground v.1.15,2013-05-08 12:47:00,
2013-05-08 05:57:00,52.2,47.8,30.03,SSE,162,2.0,3.0,85,0.00,,,0.00,7,Wunderground v.1.15,2013-05-08 12:57:00,
2013-05-08 06:12:00,52.3,47.6,30.04,SE,144,1.0,1.0,84,0.00,,,0.00,9,Wunderground v.1.15,2013-05-08 13:12:00,
2013-05-08 06:17:00,52.3,47.6,30.04,South,188,1.0,5.0,84,0.00,,,0.00,11,Wunderground v.1.15,2013-05-08 13:17:00,
2013-05-08 06:28:00,52.3,47.6,30.04,SSW,203,2.0,3.0,84,0.00,,,0.00,14,Wunderground v.1.15,2013-05-08 13:28:00,
2013-05-08 06:37:00,52.5,47.8,30.04,ESE,120,2.0,2.0,84,0.00,,,0.00,14,Wunderground v.1.15,2013-05-08 13:37:00,
2013-05-08 06:48:00,52.5,47.8,30.04,ESE,110,1.0,4.0,84,0.00,,,0.00,18,Wunderground v.1.15,2013-05-08 13:48:00,
2013-05-08 06:58:00,52.5,47.8,30.04,SSW,198,1.0,2.0,84,0.00,,,0.00,21,Wunderground v.1.15,2013-05-08 13:58:00,
2013-05-08 07:08:00,52.5,47.8,30.05,SSW,198,3.0,5.0,84,0.00,,,0.00,32,Wunderground v.1.15,2013-05-08 14:08:00,
2013-05-08 07:18:00,52.5,48.1,30.06,SSW,200,2.0,3.0,85,0.00,,,0.00,37,Wunderground v.1.15,2013-05-08 14:18:00,
2013-05-08 07:28:00,52.5,48.1,30.06,SE,128,2.0,2.0,85,0.00,,,0.00,48,Wunderground v.1.15,2013-05-08 14:28:00,
2013-05-08 07:38:00,52.6,48.2,30.06,South,189,2.0,2.0,85,0.00,,,0.00,56,Wunderground v.1.15,2013-05-08 14:38:00,
2013-05-08 07:48:00,52.6,47.9,30.06,South,175,2.0,2.0,84,0.00,,,0.00,62,Wunderground v.1.15,2013-05-08 14:48:00,
2013-05-08 07:58:00,52.8,48.1,30.06,South,188,2.0,2.0,84,0.00,,,0.00,69,Wunderground v.1.15,2013-05-08 14:58:00,
2013-05-08 08:07:00,52.8,48.1,30.06,South,179,2.0,6.0,84,0.00,,,0.00,91,Wunderground v.1.15,2013-05-08 15:07:00,
2013-05-08 08:17:00,52.8,48.4,30.06,SE,130,2.0,3.0,85,0.00,,,0.00,111,Wunderground v.1.15,2013-05-08 15:17:00,
2013-05-08 08:27:00,52.9,48.2,30.06,SSE,161,2.0,2.0,84,0.00,,,0.00,123,Wunderground v.1.15,2013-05-08 15:27:00,
2013-05-08 08:37:00,53.1,48.4,30.07,South,178,2.0,3.0,84,0.00,,,0.00,174,Wunderground v.1.15,2013-05-08 15:37:00,
2013-05-08 08:51:00,53.5,48.1,30.07,South,186,3.0,3.0,82,0.00,,,0.00,176,Wunderground v.1.15,2013-05-08 15:51:00,
2013-05-08 08:57:00,53.5,48.1,30.07,SSW,198,3.0,3.0,82,0.00,,,0.00,188,Wunderground v.1.15,2013-05-08 15:57:00,
2013-05-08 09:07:00,53.6,48.2,30.07,SSE,165,2.0,2.0,82,0.00,,,0.00,157,Wunderground v.1.15,2013-05-08 16:07:00,
2013-05-08 09:22:00,54.1,48.4,30.07,SSW,193,2.0,2.0,81,0.00,,,0.00,155,Wunderground v.1.15,2013-05-08 16:22:00,
2013-05-08 09:27:00,54.2,48.5,30.07,SSW,205,2.0,4.0,81,0.00,,,0.00,178,Wunderground v.1.15,2013-05-08 16:27:00,
2013-05-08 09:38:00,54.1,48.1,30.07,SSW,203,2.0,6.0,80,0.00,,,0.00,160,Wunderground v.1.15,2013-05-08 16:38:00,
2013-05-08 09:48:00,53.8,48.1,30.08,South,184,4.0,6.0,81,0.00,,,0.00,167,Wunderground v.1.15,2013-05-08 16:48:00,
2013-05-08 10:02:00,54.1,48.1,30.08,South,184,2.0,3.0,80,0.00,,,0.00,169,Wunderground v.1.15,2013-05-08 17:02:00,
2013-05-08 10:08:00,54.1,48.1,30.08,South,171,2.0,3.0,80,0.00,,,0.00,148,Wunderground v.1.15,2013-05-08 17:08:00,
2013-05-08 10:18:00,53.8,48.1,30.08,South,181,3.0,6.0,81,0.00,,,0.00,169,Wunderground v.1.15,2013-05-08 17:18:00,
2013-05-08 10:32:00,53.8,48.1,30.09,South,184,2.0,4.0,81,0.00,,,0.00,148,Wunderground v.1.15,2013-05-08 17:32:00,
2013-05-08 10:42:00,53.8,48.1,30.09,SSW,192,3.0,3.0,81,0.00,,,0.00,155,Wunderground v.1.15,2013-05-08 17:42:00,
2013-05-08 10:48:00,53.8,48.1,30.09,South,189,3.0,5.0,81,0.00,,,0.00,167,Wunderground v.1.15,2013-05-08 17:48:00,
2013-05-08 10:58:00,54.2,48.5,30.09,South,179,2.0,2.0,81,0.00,,,0.00,206,Wunderground v.1.15,2013-05-08 17:58:00,
2013-05-08 11:07:00,54.2,48.2,30.09,South,178,2.0,5.0,80,0.00,,,0.00,204,Wunderground v.1.15,2013-05-08 18:07:00,
2013-05-08 11:17:00,54.2,48.5,30.09,South,184,3.0,3.0,81,0.00,,,0.00,211,Wunderground v.1.15,2013-05-08 18:17:00,
2013-05-08 11:27:00,54.8,48.4,30.09,South,184,1.0,2.0,79,0.00,,,0.00,225,Wunderground v.1.15,2013-05-08 18:27:00,
2013-05-08 11:37:00,54.7,48.3,30.09,SSW,198,2.0,2.0,79,0.00,,,0.00,216,Wunderground v.1.15,2013-05-08 18:37:00,
2013-05-08 11:47:00,54.8,48.7,30.09,SSW,200,2.0,2.0,80,0.00,,,0.00,252,Wunderground v.1.15,2013-05-08 18:47:00,
2013-05-08 11:57:00,55.4,48.3,30.09,SSW,196,2.0,5.0,77,0.00,,,0.00,271,Wunderground v.1.15,2013-05-08 18:57:00,
2013-05-08 12:07:00,54.7,48.3,30.09,SSW,203,4.0,4.0,79,0.00,,,0.00,287,Wunderground v.1.15,2013-05-08 19:07:00,
2013-05-08 12:18:00,55.3,48.6,30.09,SSW,198,2.0,3.0,78,0.00,,,0.00,297,Wunderground v.1.15,2013-05-08 19:18:00,
2013-05-08 12:27:00,55.9,48.4,30.09,South,181,2.0,5.0,76,0.00,,,0.00,283,Wunderground v.1.15,2013-05-08 19:27:00,
2013-05-08 12:37:00,55.9,48.1,30.09,South,184,2.0,2.0,75,0.00,,,0.00,303,Wunderground v.1.15,2013-05-08 19:37:00,
2013-05-08 12:47:00,56.0,48.5,30.09,South,175,2.0,10.0,76,0.00,,,0.00,310,Wunderground v.1.15,2013-05-08 19:47:00,
2013-05-08 12:58:00,55.9,48.1,30.09,SSW,196,3.0,3.0,75,0.00,,,0.00,290,Wunderground v.1.15,2013-05-08 19:58:00,
2013-05-08 13:08:00,56.0,48.2,30.09,SSE,155,3.0,3.0,75,0.00,,,0.00,308,Wunderground v.1.15,2013-05-08 20:08:00,
2013-05-08 13:18:00,56.7,48.9,30.09,SSW,192,2.0,2.0,75,0.00,,,0.00,348,Wunderground v.1.15,2013-05-08 20:18:00,
2013-05-08 13:28:00,57.2,48.6,30.09,SSW,206,2.0,2.0,73,0.00,,,0.00,417,Wunderground v.1.15,2013-05-08 20:28:00,
2013-05-08 13:38:00,58.1,49.1,30.09,South,186,2.0,2.0,72,0.00,,,0.00,493,Wunderground v.1.15,2013-05-08 20:38:00,
2013-05-08 13:48:00,59.0,49.2,30.09,West,261,1.0,3.0,70,0.00,,,0.00,428,Wunderground v.1.15,2013-05-08 20:48:00,
2013-05-08 13:58:00,58.9,49.1,30.09,West,260,2.0,2.0,70,0.00,,,0.00,392,Wunderground v.1.15,2013-05-08 20:58:00,
2013-05-08 14:07:00,58.6,49.2,30.09,South,185,2.0,6.0,71,0.00,,,0.00,396,Wunderground v.1.15,2013-05-08 21:07:00,
2013-05-08 14:17:00,58.7,48.6,30.09,West,275,1.0,5.0,69,0.00,,,0.00,466,Wunderground v.1.15,2013-05-08 21:17:00,
2013-05-08 14:27:00,59.3,49.5,30.09,South,189,1.0,2.0,70,0.00,,,0.00,475,Wunderground v.1.15,2013-05-08 21:27:00,
2013-05-08 14:37:00,59.9,49.7,30.09,West,265,1.0,8.0,69,0.00,,,0.00,531,Wunderground v.1.15,2013-05-08 21:37:00,
2013-05-08 14:47:00,59.8,49.2,30.09,WSW,241,2.0,2.0,68,0.00,,,0.00,792,Wunderground v.1.15,2013-05-08 21:47:00,
2013-05-08 14:57:00,61.5,49.2,30.09,South,188,1.0,4.0,64,0.00,,,0.00,818,Wunderground v.1.15,2013-05-08 21:57:00,
2013-05-08 15:07:00,61.6,49.3,30.09,SSW,196,2.0,7.0,64,0.00,,,0.00,755,Wunderground v.1.15,2013-05-08 22:07:00,
2013-05-08 15:17:00,62.1,49.8,30.08,WNW,295,1.0,1.0,64,0.00,,,0.00,730,Wunderground v.1.15,2013-05-08 22:17:00,
2013-05-08 15:28:00,62.0,50.1,30.08,South,185,2.0,2.0,65,0.00,,,0.00,711,Wunderground v.1.15,2013-05-08 22:28:00,
2013-05-08 15:37:00,62.6,49.8,30.08,South,191,1.0,3.0,63,0.00,,,0.00,691,Wunderground v.1.15,2013-05-08 22:37:00,
2013-05-08 15:48:00,62.0,50.1,30.07,South,181,1.0,2.0,65,0.00,,,0.00,676,Wunderground v.1.15,2013-05-08 22:48:00,
2013-05-08 15:58:00,63.1,50.7,30.07,SSE,164,1.0,3.0,64,0.00,,,0.00,655,Wunderground v.1.15,2013-05-08 22:58:00,
2013-05-08 16:08:00,64.2,50.0,30.07,SSE,154,0.0,1.0,60,0.00,,,0.00,630,Wunderground v.1.15,2013-05-08 23:08:00,
2013-05-08 16:28:00,63.9,50.2,30.06,South,178,2.0,2.0,61,0.00,,,0.00,582,Wunderground v.1.15,2013-05-08 23:28:00,
2013-05-08 16:38:00,64.0,49.8,30.06,SSE,164,1.0,1.0,60,0.00,,,0.00,558,Wunderground v.1.15,2013-05-08 23:38:00,
2013-05-08 16:48:00,64.5,49.8,30.06,South,174,1.0,2.0,59,0.00,,,0.00,533,Wunderground v.1.15,2013-05-08 23:48:00,
2013-05-08 16:58:00,64.8,50.6,30.06,South,174,1.0,3.0,60,0.00,,,0.00,507,Wunderground v.1.15,2013-05-08 23:58:00,
2013-05-08 17:07:00,64.5,49.8,30.06,South,175,1.0,2.0,59,0.00,,,0.00,486,Wunderground v.1.15,2013-05-09 00:07:00,
2013-05-08 17:17:00,65.2,50.5,30.06,SW,224,1.0,3.0,59,0.00,,,0.00,456,Wunderground v.1.15,2013-05-09 00:17:00,
2013-05-08 17:27:00,66.0,50.3,30.06,SW,229,1.0,1.0,57,0.00,,,0.00,428,Wunderground v.1.15,2013-05-09 00:27:00,
2013-05-08 17:37:00,66.1,49.9,30.05,SSW,210,1.0,1.0,56,0.00,,,0.00,399,Wunderground v.1.15,2013-05-09 00:37:00,
2013-05-08 17:47:00,66.3,50.1,30.05,SSW,202,0.0,2.0,56,0.00,,,0.00,373,Wunderground v.1.15,2013-05-09 00:47:00,
2013-05-08 17:57:00,65.6,50.9,30.05,SSW,203,1.0,1.0,59,0.00,,,0.00,343,Wunderground v.1.15,2013-05-09 00:57:00,
2013-05-08 18:07:00,65.8,50.6,30.05,SSW,212,1.0,2.0,58,0.00,,,0.00,315,Wunderground v.1.15,2013-05-09 01:07:00,
2013-05-08 18:18:00,65.6,50.9,30.04,SSW,212,1.0,1.0,59,0.00,,,0.00,285,Wunderground v.1.15,2013-05-09 01:18:00,
2013-05-08 18:27:00,66.0,51.3,30.04,SW,223,0.0,3.0,59,0.00,,,0.00,257,Wunderground v.1.15,2013-05-09 01:27:00,
2013-05-08 18:37:00,65.3,50.6,30.04,WSW,240,2.0,2.0,59,0.00,,,0.00,229,Wunderground v.1.15,2013-05-09 01:37:00,
2013-05-08 18:52:00,64.7,50.9,30.04,WSW,246,2.0,2.0,61,0.00,,,0.00,188,Wunderground v.1.15,2013-05-09 01:52:00,
2013-05-08 18:58:00,64.7,50.9,30.04,WSW,248,2.0,2.0,61,0.00,,,0.00,172,Wunderground v.1.15,2013-05-09 01:58:00,
2013-05-08 19:08:00,64.2,50.9,30.04,SW,229,1.0,6.0,62,0.00,,,0.00,148,Wunderground v.1.15,2013-05-09 02:08:00,
2013-05-08 19:18:00,64.0,50.7,30.03,SW,226,1.0,2.0,62,0.00,,,0.00,123,Wunderground v.1.15,2013-05-09 02:18:00,
2013-05-08 19:32:00,63.2,50.8,30.03,South,189,1.0,4.0,64,0.00,,,0.00,39,Wunderground v.1.15,2013-05-09 02:32:00,
2013-05-08 19:42:00,62.6,50.7,30.03,WSW,239,2.0,2.0,65,0.00,,,0.00,37,Wunderground v.1.15,2013-05-09 02:42:00,
2013-05-08 19:48:00,62.4,50.5,30.03,WSW,251,1.0,2.0,65,0.00,,,0.00,30,Wunderground v.1.15,2013-05-09 02:48:00,
2013-05-08 19:58:00,62.4,50.9,30.03,WSW,251,0.0,1.0,66,0.00,,,0.00,35,Wunderground v.1.15,2013-05-09 02:58:00,
2013-05-08 20:17:00,61.5,50.4,30.04,WSW,253,1.0,1.0,67,0.00,,,0.00,14,Wunderground v.1.15,2013-05-09 03:17:00,
2013-05-08 20:27:00,61.0,50.8,30.04,WSW,253,1.0,1.0,69,0.00,,,0.00,9,Wunderground v.1.15,2013-05-09 03:27:00,
2013-05-08 20:37:00,60.2,50.8,30.04,WSW,253,0.0,1.0,71,0.00,,,0.00,5,Wunderground v.1.15,2013-05-09 03:37:00,
2013-05-08 20:52:00,59.3,50.3,30.04,WSW,253,1.0,1.0,72,0.00,,,0.00,0,Wunderground v.1.15,2013-05-09 03:52:00,
2013-05-08 20:57:00,59.2,50.5,30.04,WSW,251,0.0,1.0,73,0.00,,,0.00,0,Wunderground v.1.15,2013-05-09 03:57:00,
2013-05-08 21:02:00,58.9,50.6,30.05,WSW,251,0.0,0.0,74,0.00,,,0.00,0,Wunderground v.1.15,2013-05-09 04:02:00,
2013-05-08 21:07:00,58.6,50.7,30.05,WSW,250,0.0,0.0,75,0.00,,,0.00,0,Wunderground v.1.15,2013-05-09 04:07:00,
2013-05-08 21:12:00,58.3,50.4,30.05,WSW,251,0.0,0.0,75,0.00,,,0.00,0,Wunderground v.1.15,2013-05-09 04:12:00,
2013-05-08 21:17:00,58.1,50.6,30.06,WSW,251,0.0,0.0,76,0.00,,,0.00,0,Wunderground v.1.15,2013-05-09 04:17:00,
2013-05-08 21:27:00,57.6,50.4,30.06,WSW,247,0.0,0.0,77,0.00,,,0.00,0,Wunderground v.1.15,2013-05-09 04:27:00,
2013-05-08 21:38:00,57.2,50.4,30.06,WSW,250,0.0,0.0,78,0.00,,,0.00,0,Wunderground v.1.15,2013-05-09 04:38:00,
2013-05-08 21:48:00,56.7,50.6,30.06,WSW,250,0.0,0.0,80,0.00,,,0.00,0,Wunderground v.1.15,2013-05-09 04:48:00,
2013-05-08 21:58:00,56.5,50.4,30.06,WSW,248,0.0,0.0,80,0.00,,,0.00,0,Wunderground v.1.15,2013-05-09 04:58:00,
2013-05-08 22:08:00,56.3,50.5,30.06,WSW,248,0.0,0.0,81,0.00,,,0.00,0,Wunderground v.1.15,2013-05-09 05:08:00,
2013-05-08 22:18:00,56.2,50.4,30.06,WSW,248,0.0,0.0,81,0.00,,,0.00,0,Wunderground v.1.15,2013-05-09 05:18:00,
2013-05-08 22:28:00,55.9,50.5,30.06,WSW,250,0.0,0.0,82,0.00,,,0.00,0,Wunderground v.1.15,2013-05-09 05:28:00,
2013-05-08 22:38:00,55.7,50.6,30.07,WSW,250,0.0,0.0,83,0.00,,,0.00,0,Wunderground v.1.15,2013-05-09 05:38:00,
2013-05-08 22:48:00,55.3,50.2,30.07,WSW,250,0.0,0.0,83,0.00,,,0.00,0,Wunderground v.1.15,2013-05-09 05:48:00,
2013-05-08 22:58:00,55.0,50.3,30.07,WSW,250,0.0,0.0,84,0.00,,,0.00,0,Wunderground v.1.15,2013-05-09 05:58:00,
2013-05-08 23:11:00,54.5,50.1,30.08,WSW,250,0.0,0.0,85,0.00,,,0.00,0,Wunderground v.1.15,2013-05-09 06:11:00,
2013-05-08 23:17:00,54.4,50.3,30.08,WSW,250,0.0,0.0,86,0.00,,,0.00,0,Wunderground v.1.15,2013-05-09 06:17:00,
2013-05-08 23:27:00,54.2,50.4,30.08,WSW,250,0.0,0.0,87,0.00,,,0.00,0,Wunderground v.1.15,2013-05-09 06:27:00,
2013-05-08 23:37:00,53.9,50.1,30.08,WSW,250,0.0,0.0,87,0.00,,,0.00,0,Wunderground v.1.15,2013-05-09 06:37:00,
2013-05-08 23:47:00,53.6,50.1,30.09,WSW,250,0.0,0.0,88,0.00,,,0.00,0,Wunderground v.1.15,2013-05-09 06:47:00,
2013-05-08 23:57:00,53.3,49.8,30.09,WSW,248,0.0,0.0,88,0.00,,,0.00,0,Wunderground v.1.15,2013-05-09 06:57:00,